| time (UTC) | temp F | wind direction | speed MPH | gust MPH | rain 1hr in | rain 24hr in | rain mn in | humidity % | barometer mb |
| 20260506090004 | 53 | 100 | 0.0 | 0.0 | 0.00 | 0.00 | 0.00 | 87 | 1018.9 |
| 20260506084547 | 53 | 100 | 0.0 | 0.0 | 0.00 | 0.00 | 0.00 | 87 | 1018.9 |
| 20260506083046 | 52 | 100 | 0.0 | 0.0 | 0.00 | 0.00 | 0.00 | 88 | 1018.9 |
| 20260506081533 | 53 | 100 | 0.0 | 0.0 | 0.00 | 0.00 | 0.00 | 88 | 1018.9 |
| 20260506073007 | 53 | 100 | 0.0 | 0.0 | 0.00 | 0.01 | 0.00 | 88 | 1018.5 |
| 20260506071547 | 53 | 100 | 0.0 | 0.0 | 0.00 | 0.01 | 0.00 | 88 | 1018.4 |
| 20260506061501 | 54 | 100 | 0.0 | 0.0 | 0.00 | 0.02 | 0.01 | 88 | 1017.8 |
| 20260506060126 | 54 | 100 | 0.0 | 0.0 | 0.00 | 0.02 | 0.01 | 88 | 1017.8 |
| 20260506044613 | 54 | 104 | 0.0 | 2.0 | 0.00 | 0.03 | 0.01 | 87 | 1017.0 |
| 20260506043056 | 54 | 114 | 0.0 | 1.0 | 0.00 | 0.03 | 0.01 | 87 | 1017.0 |
| 20260506041535 | 54 | 113 | 0.0 | 1.0 | 0.00 | 0.03 | 0.01 | 87 | 1016.7 |
| 20260506040035 | 54 | 158 | 0.0 | 7.0 | 0.00 | 0.03 | 0.01 | 87 | 1016.3 |
| 20260506034514 | 54 | 127 | 0.0 | 2.0 | 0.00 | 0.03 | 0.01 | 87 | 1016.0 |
| 20260506033012 | 55 | 130 | 1.0 | 6.0 | 0.00 | 0.03 | 0.01 | 87 | 1015.8 |
| 20260506031558 | 55 | 148 | 1.0 | 3.0 | 0.00 | 0.03 | 0.01 | 86 | 1015.6 |
| 20260506030054 | 55 | 110 | 0.0 | 4.0 | 0.00 | 0.03 | 0.01 | 86 | 1015.5 |
| 20260506024546 | 56 | 102 | 1.0 | 6.0 | 0.00 | 0.04 | 0.01 | 86 | 1015.3 |
| 20260506023036 | 56 | 111 | 0.0 | 6.0 | 0.00 | 0.04 | 0.01 | 85 | 1015.0 |
| 20260506021518 | 57 | 110 | 0.0 | 3.0 | 0.00 | 0.04 | 0.01 | 84 | 1015.0 |
| 20260506020017 | 57 | 98 | 2.0 | 5.0 | 0.00 | 0.04 | 0.01 | 83 | 1014.9 |
| 20260506014601 | 58 | 139 | 0.0 | 5.0 | 0.00 | 0.08 | 0.01 | 83 | 1014.8 |
| 20260506013059 | 59 | 145 | 1.0 | 4.0 | 0.00 | 0.08 | 0.01 | 82 | 1014.6 |
| 20260506011543 | 59 | 127 | 1.0 | 5.0 | 0.00 | 0.08 | 0.01 | 81 | 1014.6 |
| 20260506010041 | 59 | 99 | 1.0 | 6.0 | 0.00 | 0.08 | 0.01 | 81 | 1014.6 |
| 20260506004523 | 60 | 136 | 1.0 | 6.0 | 0.00 | 0.08 | 0.01 | 80 | 1014.6 |
| 20260506003023 | 60 | 110 | 0.0 | 7.0 | 0.00 | 0.08 | 0.01 | 80 | 1014.5 |
| 20260506001505 | 61 | 107 | 1.0 | 6.0 | 0.00 | 0.08 | 0.01 | 78 | 1014.5 |
| 20260506000004 | 63 | 119 | 2.0 | 5.0 | 0.00 | 0.08 | 0.01 | 76 | 1014.4 |
| 20260505234550 | 64 | 148 | 3.0 | 7.0 | 0.00 | 0.09 | 0.01 | 74 | 1014.3 |
| 20260505233045 | 65 | 105 | 0.0 | 4.0 | 0.00 | 0.09 | 0.01 | 74 | 1014.4 |
| 20260505231526 | 64 | 347 | 0.0 | 3.0 | 0.00 | 0.09 | 0.01 | 74 | 1014.5 |
| 20260505230045 | 65 | 153 | 0.0 | 6.0 | 0.00 | 0.09 | 0.01 | 73 | 1014.6 |
| 20260505224507 | 65 | 130 | 2.0 | 4.0 | 0.00 | 0.10 | 0.01 | 72 | 1014.7 |
| 20260505223007 | 65 | 148 | 2.0 | 5.0 | 0.00 | 0.10 | 0.01 | 71 | 1014.8 |
| 20260505221547 | 64 | 50 | 0.0 | 5.0 | 0.00 | 0.10 | 0.01 | 73 | 1014.9 |
| 20260505220044 | 64 | 41 | 0.0 | 5.0 | 0.00 | 0.10 | 0.01 | 76 | 1015.0 |
| 20260505214526 | 63 | 184 | 1.0 | 7.0 | 0.00 | 0.17 | 0.01 | 77 | 1015.2 |
| 20260505213023 | 62 | 125 | 0.0 | 7.0 | 0.00 | 0.17 | 0.01 | 81 | 1015.2 |
| 20260505211504 | 62 | 106 | 1.0 | 8.0 | 0.00 | 0.17 | 0.01 | 84 | 1015.4 |
| 20260505210101 | 61 | 170 | 2.0 | 6.0 | 0.00 | 0.17 | 0.01 | 87 | 1015.4 |
| 20260505204539 | 58 | 137 | 0.0 | 2.0 | 0.00 | 0.32 | 0.01 | 84 | 1015.4 |
| 20260505203038 | 57 | 150 | 0.0 | 2.0 | 0.00 | 0.32 | 0.01 | 84 | 1015.6 |
| 20260505201519 | 57 | 137 | 0.0 | 0.0 | 0.00 | 0.32 | 0.01 | 84 | 1015.4 |
| 20260505200020 | 57 | 95 | 1.0 | 5.0 | 0.00 | 0.32 | 0.01 | 84 | 1015.6 |
| 20260505194559 | 56 | 8 | 0.0 | 3.0 | 0.00 | 0.32 | 0.01 | 84 | 1015.6 |
| 20260505193057 | 56 | 111 | 0.0 | 3.0 | 0.00 | 0.32 | 0.01 | 85 | 1015.6 |
| 20260505191537 | 55 | 352 | 0.0 | 2.0 | 0.00 | 0.32 | 0.01 | 86 | 1015.6 |
| 20260505190034 | 54 | 100 | 0.0 | 2.0 | 0.00 | 0.32 | 0.01 | 86 | 1015.7 |
| 20260505184516 | 53 | 100 | 0.0 | 1.0 | 0.00 | 0.32 | 0.01 | 86 | 1015.7 |
| 20260505183015 | 53 | 330 | 0.0 | 2.0 | 0.00 | 0.32 | 0.01 | 86 | 1015.7 |
| 20260505181555 | 53 | 293 | 0.0 | 3.0 | 0.00 | 0.32 | 0.01 | 86 | 1015.6 |
| 20260505180104 | 52 | 82 | 0.0 | 2.0 | 0.00 | 0.32 | 0.01 | 86 | 1015.6 |
| 20260505174539 | 52 | 343 | 0.0 | 2.0 | 0.00 | 0.32 | 0.01 | 86 | 1015.5 |
| 20260505173033 | 52 | 33 | 0.0 | 2.0 | 0.00 | 0.32 | 0.01 | 87 | 1015.3 |
| 20260505171513 | 52 | 22 | 0.0 | 1.0 | 0.00 | 0.32 | 0.01 | 87 | 1015.2 |
| 20260505170011 | 51 | 356 | 0.0 | 2.0 | 0.00 | 0.32 | 0.01 | 87 | 1015.2 |
| 20260505164552 | 51 | 18 | 0.0 | 2.0 | 0.00 | 0.32 | 0.01 | 87 | 1015.2 |
| 20260505163048 | 51 | 259 | 0.0 | 2.0 | 0.00 | 0.32 | 0.01 | 87 | 1015.1 |
| 20260505161529 | 50 | 41 | 0.0 | 2.0 | 0.00 | 0.32 | 0.01 | 87 | 1015.0 |
| 20260505153011 | 50 | 352 | 0.0 | 3.0 | 0.00 | 0.32 | 0.01 | 87 | 1014.8 |
| 20260505151607 | 50 | 26 | 0.0 | 2.0 | 0.00 | 0.32 | 0.01 | 87 | 1014.5 |
| 20260505124531 | 48 | 86 | 0.0 | 1.0 | 0.00 | 0.32 | 0.01 | 87 | 1013.5 |
| 20260505123026 | 48 | 98 | 0.0 | 1.0 | 0.00 | 0.32 | 0.01 | 87 | 1013.4 |
| 20260505121512 | 48 | 98 | 0.0 | 0.0 | 0.00 | 0.32 | 0.01 | 87 | 1013.5 |
| 20260505120054 | 48 | 99 | 0.0 | 0.0 | 0.00 | 0.32 | 0.01 | 87 | 1013.7 |
| 20260505114556 | 48 | 99 | 0.0 | 0.0 | 0.00 | 0.32 | 0.01 | 87 | 1013.5 |
| 20260505113039 | 48 | 99 | 0.0 | 0.0 | 0.00 | 0.32 | 0.01 | 87 | 1013.5 |
| 20260505111535 | 48 | 99 | 0.0 | 0.0 | 0.00 | 0.32 | 0.01 | 87 | 1013.6 |
| 20260505101609 | 48 | 98 | 0.0 | 0.0 | 0.00 | 0.32 | 0.01 | 87 | 1013.6 |
| 20260505100057 | 47 | 99 | 0.0 | 0.0 | 0.00 | 0.32 | 0.01 | 87 | 1013.8 |
| 20260505094538 | 47 | 99 | 0.0 | 0.0 | 0.00 | 0.32 | 0.01 | 87 | 1013.7 |
| 20260505093123 | 47 | 98 | 0.0 | 0.0 | 0.00 | 0.32 | 0.01 | 87 | 1013.6 |
| 20260505091520 | 47 | 98 | 0.0 | 0.0 | 0.00 | 0.32 | 0.01 | 87 | 1013.1 |